This is the latest recevied weather packets stored in our database for station/object NC4M. If no packets are shown the sender has not sent any weather packets the latest 1 day(s).
| Time | Temp. | Humidity | Pressure | Rain* | Wind** | Luminosity | Snow |
|---|---|---|---|---|---|---|---|
| 1777989650 | 10.56° C | 86% | 1009 hPa | 0 mm | 0 m/s | 100 W/m² | - |
| 1777989346 | 10.56° C | 84% | 1009.2 hPa | 0 mm | 0 m/s | 90 W/m² | - |
| 1777989043 | 10.56° C | 86% | 1009.1 hPa | 0 mm | 0.45 m/s, 28° | 108 W/m² | - |
| 1777988738 | 10.56° C | 85% | 1009.1 hPa | 0 mm | 1.34 m/s, 10° | 119 W/m² | - |
| 1777988436 | 10.56° C | 86% | 1008.9 hPa | 0 mm | 0 m/s | 122 W/m² | - |
| 1777988132 | 10.56° C | 87% | 1009 hPa | 0 mm | 0 m/s | 124 W/m² | - |
| 1777987832 | 10.56° C | 86% | 1009.2 hPa | 0 mm | 0.45 m/s, 63° | 111 W/m² | - |
| 1777987526 | 10.56° C | 88% | 1009.3 hPa | 0 mm | 0 m/s | 75 W/m² | - |
| 1777987223 | 10.56° C | 87% | 1009 hPa | 0 mm | 0.45 m/s, 214° | 104 W/m² | - |
| 1777986919 | 10.56° C | 85% | 1008.9 hPa | 0 mm | 0.45 m/s, 48° | 113 W/m² | - |
| 1777986618 | 10.56° C | 88% | 1009 hPa | 0 mm | 0 m/s | 159 W/m² | - |
| 1777986315 | 10.56° C | 87% | 1008.9 hPa | 0 mm | 0.45 m/s, 63° | 121 W/m² | - |
| 1777986014 | 10.56° C | 88% | 1009 hPa | 0 mm | 0.45 m/s, 165° | 66 W/m² | - |
| 1777985710 | 10.56° C | 89% | 1009 hPa | 0 mm | 0 m/s | 41 W/m² | - |
| 1777985406 | 10.56° C | 88% | 1009.2 hPa | 0 mm | 0 m/s | 44 W/m² | - |
| 1777985103 | 10.56° C | 87% | 1009.1 hPa | 0 mm | 0.89 m/s, 209° | 31 W/m² | - |
| 1777984799 | 10.56° C | 88% | 1009.1 hPa | 0 mm | 1.79 m/s, 284° | 38 W/m² | - |
| 1777984496 | 10.56° C | 89% | 1008.2 hPa | 0 mm | 0 m/s | 53 W/m² | - |
| 1777984192 | 10.56° C | 89% | 1008 hPa | 0 mm | 0 m/s | 57 W/m² | - |
| 1777983889 | 10.56° C | 90% | 1008.2 hPa | 0 mm | 0 m/s | 35 W/m² | - |
| 1777983586 | 10° C | 90% | 1008.4 hPa | 0 mm | 0 m/s | 32 W/m² | - |
| 1777983283 | 10° C | 89% | 1008.4 hPa | 0 mm | 0 m/s | 37 W/m² | - |
| 1777982979 | 10° C | 89% | 1008.4 hPa | 0 mm | 0 m/s | 22 W/m² | - |
| 1777982676 | 10° C | 89% | 1008.4 hPa | 0 mm | 0 m/s | 16 W/m² | - |
| 1777982375 | 10.56° C | 89% | 1008.6 hPa | 0 mm | 0 m/s | 17 W/m² | - |
* Rain latest hour (hover to see other rain measurements)
** Current wind speed in m/s (hover to see current wind gust speed)